Lid_Strength_Index
-2 -2 -2 -2 -1 -1 -1 -2 -2 -1 -0 -0 0 -1 -1 -0 2 5 7 3 2 -0 2 5 5 5 5 6 6 7 9 11 11 11 11 9 9 9 8 7 6 5 6 5 2
-1 -1 -2 -2 -2 -1 -1 -2 -2 -1 -1 0 0 -0 -0 0 6 7 4 1 0 1 5 6 6 6 7 7 7 7 9 11 10 10 10 10 10 10 9 8 7 6 4 3 2
-1 -1 -1 -1 -1 -1 -2 -2 -2 -1 -1 -1 -0 -0 0 2 6 8 2 1 1 3 5 6 6 6 8 7 8 8 10 10 10 9 9 10 9 10 9 9 9 9 6 4 3
-2 -1 -1 -1 -1 -1 -2 -2 -2 -1 -1 -1 -0 -0 1 5 10 7 2 2 2 4 6 7 7 8 9 9 9 10 10 10 10 10 10 10 9 10 9 8 8 6 5 3 4
-1 -1 -1 -1 -1 -1 -1 -2 -2 -1 -1 -1 -0 1 4 7 9 5 3 4 5 5 7 8 8 8 9 9 9 10 10 10 10 10 10 10 10 10 9 9 5 3 3 4 4
-1 -1 -1 -1 -1 -1 -2 -2 -2 -1 -1 -1 -0 2 6 10 6 6 5 5 5 6 7 7 8 8 9 10 10 10 10 10 10 10 10 10 10 10 9 9 5 4 4 4 4
-1 -1 -1 -1 -0 -0 -1 -1 -1 -1 -1 -1 1 5 7 9 6 5 5 5 5 6 7 7 7 8 9 10 10 10 11 11 10 10 10 10 11 10 9 9 6 5 4 4 3
-0 -0 -0 1 0 0 -0 -0 -1 -0 0 1 3 5 9 6 5 5 5 6 5 5 6 6 6 7 9 9 9 11 11 12 11 10 10 10 11 10 9 10 9 6 5 4 4
-0 0 1 0 0 0 1 -0 0 1 2 3 4 5 9 4 6 6 6 7 5 5 5 6 6 8 8 10 11 10 12 13 11 11 11 11 11 10 9 9 9 9 8 7 7
-0 0 1 1 1 1 2 1 1 2 4 5 5 6 6 8 7 6 5 6 6 6 6 7 8 9 10 10 13 13 13 12 13 12 11 11 11 9 9 10 9 9 10 9 9
0 0 1 1 1 3 3 4 6 7 7 9 10 9 8 6 6 6 6 6 6 6 9 9 10 13 13 12 12 12 13 13 12 13 13 13 12 10 9 10 10 9 10 10 9
0 0 1 1 2 3 4 7 8 7 10 9 9 9 8 8 9 8 6 8 10 11 10 10 13 12 12 12 13 13 13 13 12 13 13 13 13 10 10 10 10 10 9 9 9
1 1 1 1 2 3 5 6 4 5 8 9 8 8 9 8 10 10 8 9 11 12 12 12 13 12 12 13 12 13 13 14 14 12 14 13 11 10 10 11 10 10 9 9 8
1 1 2 1 3 5 6 5 4 5 12 12 9 8 8 8 9 7 7 8 9 12 11 12 11 12 12 14 13 13 14 15 15 14 15 15 14 12 13 12 11 11 10 9 9
3 2 2 3 5 6 6 5 5 6 16 11 10 6 8 9 10 9 8 8 12 13 11 14 13 13 13 14 13 14 13 14 15 14 15 15 15 11 13 12 11 10 10 10 9
3 4 3 5 5 6 6 5 7 13 15 14 11 11 10 10 11 10 9 8 9 11 11 13 12 12 13 13 13 13 15 16 15 15 15 20 18 12 12 13 11 11 10 10 10
4 5 6 6 7 6 6 6 13 15 13 13 13 12 13 13 12 12 12 13 13 13 14 14 14 13 13 13 13 14 13 15 15 16 16 23 19 13 12 12 12 12 11 10 10
4 6 7 8 7 6 7 10 14 18 15 13 13 13 14 14 14 13 13 14 13 14 15 15 14 14 14 15 15 16 16 16 19 19 17 24 17 14 14 13 12 12 11 10 10
5 7 7 8 7 7 8 13 13 15 13 13 13 14 14 15 15 15 15 15 15 14 14 16 16 15 15 15 15 17 15 18 22 28 20 17 16 14 13 13 13 13 12 12 11
6 8 9 9 9 7 13 14 14 14 12 13 14 16 14 15 15 15 16 14 15 14 15 16 16 18 16 15 16 16 17 17 17 20 21 18 20 15 13 13 14 14 14 13 12
8 8 8 9 8 10 14 14 16 14 13 14 15 16 16 15 16 16 16 15 14 15 15 17 16 16 17 17 17 17 17 18 18 19 19 20 17 12 13 15 16 15 14 14 13
9 12 9 9 12 17 14 17 14 13 12 13 14 15 15 16 17 17 17 15 13 14 16 15 17 17 15 17 16 17 17 17 18 20 20 21 19 14 16 17 18 15 14 13 13
10 11 10 8 13 15 17 16 14 14 14 14 15 14 15 17 16 17 16 13 13 14 15 15 17 18 16 19 18 18 17 18 19 19 19 19 17 18 16 14 13 15 14 13 14
10 12 11 12 14 14 16 16 16 14 14 14 15 14 16 18 18 17 17 15 13 14 13 14 18 17 18 16 18 19 18 18 18 19 18 18 16 14 15 16 15 14 14 14 14
12 13 15 13 13 15 15 16 17 16 14 14 16 15 16 19 19 19 17 16 14 13 15 15 18 20 19 19 22 20 20 19 20 18 19 17 19 16 16 16 16 16 15 14 14
11 11 14 15 15 14 15 16 16 16 15 16 16 16 16 18 16 18 17 17 17 15 15 17 19 23 21 21 21 22 19 19 20 19 21 19 19 17 17 17 15 14 14 14 15
12 12 11 15 15 14 14 15 15 15 15 14 14 15 16 15 15 15 15 16 16 16 17 18 20 21 21 24 23 22 20 19 19 20 19 20 17 18 17 16 16 14 14 15 15